GSAT-31

Last updated on Sun Apr 12 2026 00:02:55 GMT+0000 (Coordinated Universal Time)

1 44035U 19007B 26101.53013742 .00000127 00000+0 00000+0 0 9996 2 44035 0.0717 260.4971 0003975 76.5571 101.4011 1.00272923 26290
UTC large
Height (km)
Speed (km/s)
/
Latitude / Longitude
Inclination (degrees)
Orbital Period (minutes)
Azimuth
Elevation
Range (km)
Doppler Factor

Next 0 passes for location: London (51.5072 / 0.1276)

Sorry there are no passes over London.
GSAT-31